Tracking 29892 objects as of 21-Nov-2024
HD Live streaming from Space Station
objects crossing your sky now

SL-16 R/B DEB

Track SL-16 R/B DEB now!
10-day predictions


NORAD ID: 39708
Int'l Code: 1992-093JY
Perigee: 556.5 km
Apogee: 642.7 km
Inclination: 71.3 °
Period: 96.5 minutes
Semi major axis: 6970 km
RCS: Unknown
Launch date: December 25, 1992
Source: Commonwealth of Independent States (former USSR) (CIS)
Launch site: TYURATAM MISSILE AND SPACE COMPLEX (TTMTR)

Note: This is SATELLITE DEBRIS
Your satellite tracking list
Your tracking list is empty




NASA's NSSDC Master Catalog

Two Line Element Set (TLE):
1 39708U 92093JY  24324.34429067  .00011538  00000-0  11079-2 0  9998
2 39708  71.2795 171.8874 0061865 280.8340 252.8550 14.91757175570092
Source of the keplerian elements: AFSPC